SL-16 DEB, 22616

Orbit data source: Space-Track

SL-16 DEB, 22616 is space debris in LEO originally from a launch on Fri, 26 Mar 1993 UTC launched from the Tyuratam Missile And Space Complex (TTMTR). Debris objects in space refer to the collection of defunct objects orbiting the Earth. Examples of debris include non-operational satellites, rocket bodies, and fragments generated from explosions, collisions, or faulty payload assembly.

Loading next visibility...
Identifier
22616, 1993-016AA
Orbit
LEO
Country
Flag of CISCIS
Related business
Manufacturer
Unknown
Mission
Spacecraft
Bus & Motor
Unknown
Mass
Unknown
Launch date (UTC)
1993-03-26 (33 years ago)
Launch vehicle
Unknown
Launch site
Tyuratam Missile And Space Complex (TTMTR)
Object type
Payload
Rocket body
Debris
Shape & HBR
Unknown shape, 0.1 m
Radar Cross Section
Small (<0.1 m²)

Expand to show TLE details & history
Last TLE update: 17 hours ago

TLE from 17 hours ago
0 SL-16 DEB
1 22616U 93016AA  26037.31407859  .00000107  00000-0  14060-3 0  9993
2 22616  70.9962 155.0742 0186802   2.8139  26.5990 13.73994247647113
Epoch: 2026-02-06T07:32Z
TLE epoch observation values (Epoch: 2026-02-06T07:32:16.390Z)
Latitude
28.63242°
Longitude
-83.66817°
Altitude
865.774 km
Speed
7.484 km/s
True Right ascension
11h 03m 24s
True Declination
28° 29' 25"
Sunlit
Object was in full shadow at epoch
Visualization orbit readout
Latitude
Unknown
Longitude
Unknown
Altitude
Unknown
Speed
Unknown
Apparent Right ascension
Unknown
Apparent Declination
Unknown
Sunlit
N/A
Visualization observer readout
Local Sidereal Time
02:43:54
Azimuth
Unknown
Elevation
Unknown
Doppler factor
Unknown
Orbital elements
Apogee altitude
1,120.742 km
Perigee altitude
845.719 km
Semi-major axis
7,361.368 km
Eccentricity
0.01868
Inclination
70.9962°
RAAN
155.0742°
Arg. of periapsis
2.8139°
True anomaly
27.57781°
Mean anomaly
26.599°
Eccentric anomaly
27.08634°
Mean motion
3.43641 °/min
Orbital period
104.76 mins
BSTAR
0.0001406
Loading maneuver chart data...
Computing Atmospheric mass density...
Loading historical data...
Loading historical data...
Loading historical data...
Loading historical data...
Loading historical data...
Loading historical data...
Loading historical data...

Documentation

Showing up to 5 results
|